Location: Charleville
(26.4021°S, 146.2454°E)
Time: 08:20:23
(UTC+10:00)

Hubble Space Telescope - Visible Passes

Search period start: 29 November 2023 00:00
Search period end: 09 December 2023 00:00
Orbit: 519 x 523 km, 28.5° (Epoch: 28 November)

Date Brightness Start Highest point End Pass type
(mag) Time Alt. Az. Time Alt. Az. Time Alt. Az.
29 Nov 0.8 04:08:16 24° WNW 04:10:34 62° NNE 04:14:36 10° E visible
30 Nov 0.7 03:52:42 35° WNW 03:54:15 71° NNE 03:58:19 10° E visible
01 Dec 0.6 03:37:07 55° WNW 03:37:55 80° NNE 03:42:00 10° E visible
02 Dec 0.5 03:21:30 86° WNW 03:21:35 89° NNE 03:25:40 10° ESE visible
03 Dec 1.1 03:05:54 61° ESE 03:05:54 61° ESE 03:09:19 10° ESE visible
03 Dec 1.1 04:42:06 10° W 04:46:10 64° S 04:50:12 10° E visible
04 Dec 2.0 02:50:18 38° ESE 02:50:18 38° ESE 02:52:57 10° ESE visible
04 Dec 1.1 04:25:45 10° W 04:29:48 66° S 04:33:51 10° E visible
05 Dec 2.8 02:34:45 25° ESE 02:34:45 25° ESE 02:36:34 10° ESE visible
05 Dec 1.0 04:09:44 12° WSW 04:13:26 68° S 04:17:29 10° E visible
06 Dec 3.4 02:19:17 16° ESE 02:19:17 16° ESE 02:20:10 10° ESE visible
06 Dec 0.9 03:54:16 20° WSW 03:57:03 72° S 04:01:07 10° E visible
07 Dec 0.7 03:38:54 33° WSW 03:40:38 78° S 03:44:42 10° E visible
08 Dec 0.6 03:23:41 66° WSW 03:24:13 84° SSE 03:28:17 10° E visible
